This is the latest recevied weather packets stored in our database for station/object K7FLA. If no packets are shown the sender has not sent any weather packets the latest 10 day(s).
| Time | Temp. | Humidity | Pressure | Rain* | Wind** | Luminosity | Snow |
|---|---|---|---|---|---|---|---|
| 1788567583 | 28.33° C | 23% | 1094 hPa | 0 mm | - | 162 W/m² | - |
| 1788567279 | 28.33° C | 23% | 1093.8 hPa | 0 mm | - | 172 W/m² | - |
| 1788566973 | 28.33° C | 23% | 1093.9 hPa | 0 mm | - | 189 W/m² | - |
| 1788566669 | 28.89° C | 22% | 1094 hPa | 0 mm | - | 204 W/m² | - |
| 1788566364 | 28.89° C | 22% | 1093.8 hPa | 0 mm | - | 222 W/m² | - |
| 1788566060 | 28.89° C | 22% | 1093.9 hPa | 0 mm | - | 237 W/m² | - |
| 1788565760 | 29.44° C | 22% | 1093.8 hPa | 0 mm | - | 249 W/m² | - |
| 1788565459 | 29.44° C | 22% | 1093.9 hPa | 0 mm | - | 262 W/m² | - |
| 1788565155 | 29.44° C | 22% | 1093.9 hPa | 0 mm | - | 276 W/m² | - |
| 1788564851 | 29.44° C | 21% | 1093.8 hPa | 0 mm | - | 291 W/m² | - |
| 1788564547 | 29.44° C | 21% | 1093.9 hPa | 0 mm | - | 305 W/m² | - |
| 1788564243 | 30° C | 21% | 1093.7 hPa | 0 mm | - | 319 W/m² | - |
| 1788563939 | 30° C | 20% | 1093.8 hPa | 0 mm | - | 336 W/m² | - |
| 1788563634 | 30° C | 20% | 1093.9 hPa | 0 mm | - | 352 W/m² | - |
| 1788563329 | 30° C | 20% | 1093.8 hPa | 0 mm | - | 368 W/m² | - |
| 1788563028 | 30° C | 19% | 1093.7 hPa | 0 mm | - | 382 W/m² | - |
| 1788562723 | 30.56° C | 20% | 1093.9 hPa | 0 mm | - | 402 W/m² | - |
| 1788562422 | 30.56° C | 19% | 1093.9 hPa | 0 mm | - | 415 W/m² | - |
| 1788562124 | 30.56° C | 18% | 1093.9 hPa | 0 mm | - | 434 W/m² | - |
| 1788561817 | 30.56° C | 18% | 1094.1 hPa | 0 mm | - | 449 W/m² | - |
| 1788561516 | 30.56° C | 19% | 1094 hPa | 0 mm | - | 464 W/m² | - |
| 1788561211 | 30.56° C | 18% | 1094.1 hPa | 0 mm | - | 483 W/m² | - |
| 1788560907 | 30.56° C | 18% | 1094.2 hPa | 0 mm | - | 496 W/m² | - |
| 1788560601 | 30.56° C | 19% | 1094.1 hPa | 0 mm | - | 512 W/m² | - |
| 1788560296 | 30.56° C | 17% | 1094.3 hPa | 0 mm | - | 527 W/m² | - |
* Rain latest hour (hover to see other rain measurements)
** Current wind speed in m/s (hover to see current wind gust speed)